Year,Month,Day,Hour,Minute,Value (Times are PST for temperature in C)
2007,09,23,00,00,10.70
2007,09,23,00,01,10.70
2007,09,23,00,02,10.70
2007,09,23,00,03,10.70
2007,09,23,00,04,10.70
2007,09,23,00,05,10.70
2007,09,23,00,06,10.70
2007,09,23,00,07,10.70
2007,09,23,00,08,10.70
2007,09,23,00,09,10.70
2007,09,23,00,10,10.70
2007,09,23,00,11,10.70
2007,09,23,00,12,10.70
2007,09,23,00,13,10.70
2007,09,23,00,14,10.70
2007,09,23,00,15,10.70
2007,09,23,00,16,10.70
2007,09,23,00,17,10.70
2007,09,23,00,18,10.60
2007,09,23,00,19,10.60
2007,09,23,00,20,10.60
2007,09,23,00,21,10.60
2007,09,23,00,22,10.50
2007,09,23,00,23,10.50
2007,09,23,00,24,10.40
2007,09,23,00,25,10.40
2007,09,23,00,26,10.40
2007,09,23,00,27,10.40
2007,09,23,00,28,10.40
2007,09,23,00,29,10.40
2007,09,23,00,30,10.30
2007,09,23,00,31,10.30
2007,09,23,00,32,10.30
2007,09,23,00,33,10.30
2007,09,23,00,34,10.30
2007,09,23,00,35,10.30
2007,09,23,00,36,10.30
2007,09,23,00,37,10.30
2007,09,23,00,38,10.30
2007,09,23,00,39,10.30
2007,09,23,00,40,10.30
2007,09,23,00,41,10.30
2007,09,23,00,42,10.30
2007,09,23,00,43,10.30
2007,09,23,00,44,10.30
2007,09,23,00,45,10.20
2007,09,23,00,46,10.20
2007,09,23,00,47,10.20
2007,09,23,00,48,10.20
2007,09,23,00,49,10.20
2007,09,23,00,50,10.20
2007,09,23,00,51,10.20
2007,09,23,00,52,10.20
2007,09,23,00,53,10.20
2007,09,23,00,54,10.20
2007,09,23,00,55,10.20
2007,09,23,00,56,10.10
2007,09,23,00,57,10.10
2007,09,23,00,58,10.10
2007,09,23,00,59,10.10
2007,09,23,01,00,10.10
2007,09,23,01,01,10.10
2007,09,23,01,02,10.00
2007,09,23,01,03,10.00
2007,09,23,01,04,10.00
2007,09,23,01,05,9.90
2007,09,23,01,06,9.90
2007,09,23,01,07,9.90
2007,09,23,01,08,9.90
2007,09,23,01,09,9.90
2007,09,23,01,10,9.90
2007,09,23,01,11,9.90
2007,09,23,01,12,9.90
2007,09,23,01,13,9.90
2007,09,23,01,14,9.90
2007,09,23,01,15,9.90
2007,09,23,01,16,9.90
2007,09,23,01,17,9.80
2007,09,23,01,18,9.80
2007,09,23,01,19,9.80
2007,09,23,01,20,9.80
2007,09,23,01,21,9.90
2007,09,23,01,22,9.90
2007,09,23,01,23,9.90
2007,09,23,01,24,9.90
2007,09,23,01,25,9.90
2007,09,23,01,26,9.90
2007,09,23,01,27,9.90
2007,09,23,01,28,9.90
2007,09,23,01,29,9.90
2007,09,23,01,30,9.90
2007,09,23,01,31,9.90
2007,09,23,01,32,9.90
2007,09,23,01,33,9.90
2007,09,23,01,34,9.90
2007,09,23,01,35,9.90
2007,09,23,01,36,9.90
2007,09,23,01,37,9.90
2007,09,23,01,38,10.00
2007,09,23,01,39,10.00
2007,09,23,01,40,10.00
2007,09,23,01,41,10.00
2007,09,23,01,42,10.00
2007,09,23,01,43,10.00
2007,09,23,01,44,10.00
2007,09,23,01,45,10.00
2007,09,23,01,46,10.10
2007,09,23,01,47,10.10
2007,09,23,01,48,10.10
2007,09,23,01,49,10.10
2007,09,23,01,50,10.10
2007,09,23,01,51,10.10
2007,09,23,01,52,10.10
2007,09,23,01,53,10.10
2007,09,23,01,54,10.10
2007,09,23,01,55,10.10
2007,09,23,01,56,10.10
2007,09,23,01,57,10.10
2007,09,23,01,58,10.10
2007,09,23,01,59,10.10
2007,09,23,02,00,10.10
2007,09,23,02,01,10.10
2007,09,23,02,02,10.10
2007,09,23,02,03,10.10
2007,09,23,02,04,10.10
2007,09,23,02,05,10.10
2007,09,23,02,06,10.10
2007,09,23,02,07,10.10
2007,09,23,02,08,10.10
2007,09,23,02,09,10.10
2007,09,23,02,10,10.10
2007,09,23,02,11,10.10
2007,09,23,02,12,10.10
2007,09,23,02,13,10.10
2007,09,23,02,14,10.10
2007,09,23,02,15,10.10
2007,09,23,02,16,10.10
2007,09,23,02,17,10.10
2007,09,23,02,18,10.10
2007,09,23,02,19,10.10
2007,09,23,02,20,10.10
2007,09,23,02,21,10.10
2007,09,23,02,22,10.10
2007,09,23,02,23,10.10
2007,09,23,02,24,10.10
2007,09,23,02,25,10.10
2007,09,23,02,26,10.10
2007,09,23,02,27,10.10
2007,09,23,02,28,10.10
2007,09,23,02,29,10.10
2007,09,23,02,30,10.10
2007,09,23,02,31,10.10
2007,09,23,02,32,10.10
2007,09,23,02,33,10.10
2007,09,23,02,34,10.10
2007,09,23,02,35,10.10
2007,09,23,02,36,10.10
2007,09,23,02,37,10.10
2007,09,23,02,38,10.10
2007,09,23,02,39,10.10
2007,09,23,02,40,10.10
2007,09,23,02,41,10.00
2007,09,23,02,42,10.00
2007,09,23,02,43,10.00
2007,09,23,02,44,9.90
2007,09,23,02,45,9.90
2007,09,23,02,46,9.90
2007,09,23,02,47,9.90
2007,09,23,02,48,9.80
2007,09,23,02,49,9.80
2007,09,23,02,50,9.80
2007,09,23,02,51,9.80
2007,09,23,02,52,9.80
2007,09,23,02,53,9.80
2007,09,23,02,54,9.70
2007,09,23,02,55,9.70
2007,09,23,02,56,9.70
2007,09,23,02,57,9.70
2007,09,23,02,58,9.70
2007,09,23,02,59,9.70
2007,09,23,03,00,9.70
2007,09,23,03,01,9.70
2007,09,23,03,02,9.60
2007,09,23,03,03,9.60
2007,09,23,03,04,9.60
2007,09,23,03,05,9.60
2007,09,23,03,06,9.60
2007,09,23,03,07,9.60
2007,09,23,03,08,9.60
2007,09,23,03,09,9.60
2007,09,23,03,10,9.60
2007,09,23,03,11,9.60
2007,09,23,03,12,9.60
2007,09,23,03,13,9.60
2007,09,23,03,14,9.60
2007,09,23,03,15,9.60
2007,09,23,03,16,9.50
2007,09,23,03,17,9.50
2007,09,23,03,18,9.50
2007,09,23,03,19,9.50
2007,09,23,03,20,9.40
2007,09,23,03,21,9.40
2007,09,23,03,22,9.40
2007,09,23,03,23,9.40
2007,09,23,03,24,9.40
2007,09,23,03,25,9.40
2007,09,23,03,26,9.40
2007,09,23,03,27,9.40
2007,09,23,03,28,9.40
2007,09,23,03,29,9.30
2007,09,23,03,30,9.30
2007,09,23,03,31,9.30
2007,09,23,03,32,9.30
2007,09,23,03,33,9.30
2007,09,23,03,34,9.30
2007,09,23,03,35,9.20
2007,09,23,03,36,9.20
2007,09,23,03,37,9.20
2007,09,23,03,38,9.20
2007,09,23,03,39,9.20
2007,09,23,03,40,9.10
2007,09,23,03,41,9.10
2007,09,23,03,42,9.10
2007,09,23,03,43,9.10
2007,09,23,03,44,9.10
2007,09,23,03,45,9.10
2007,09,23,03,46,9.10
2007,09,23,03,47,9.00
2007,09,23,03,48,9.00
2007,09,23,03,49,9.00
2007,09,23,03,50,8.90
2007,09,23,03,51,8.90
2007,09,23,03,52,8.90
2007,09,23,03,53,8.90
2007,09,23,03,54,8.90
2007,09,23,03,55,8.80
2007,09,23,03,56,8.80
2007,09,23,03,57,8.80
2007,09,23,03,58,8.80
2007,09,23,03,59,8.80
2007,09,23,04,00,8.80
2007,09,23,04,01,8.80
2007,09,23,04,02,8.80
2007,09,23,04,03,8.80
2007,09,23,04,04,8.80
2007,09,23,04,05,8.80
2007,09,23,04,06,8.80
2007,09,23,04,07,8.80
2007,09,23,04,08,8.70
2007,09,23,04,09,8.70
2007,09,23,04,10,8.70
2007,09,23,04,11,8.70
2007,09,23,04,12,8.70
2007,09,23,04,13,8.70
2007,09,23,04,14,8.70
2007,09,23,04,15,8.70
2007,09,23,04,16,8.70
2007,09,23,04,17,8.70
2007,09,23,04,18,8.70
2007,09,23,04,19,8.70
2007,09,23,04,20,8.70
2007,09,23,04,21,8.70
2007,09,23,04,22,8.80
2007,09,23,04,23,8.80
2007,09,23,04,24,8.80
2007,09,23,04,25,8.80
2007,09,23,04,26,8.80
2007,09,23,04,27,8.80
2007,09,23,04,28,8.80
2007,09,23,04,29,8.80
2007,09,23,04,30,8.80
2007,09,23,04,31,8.80
2007,09,23,04,32,8.80
2007,09,23,04,33,8.80
2007,09,23,04,34,8.80
2007,09,23,04,35,8.80
2007,09,23,04,36,8.80
2007,09,23,04,37,8.80
2007,09,23,04,38,8.80
2007,09,23,04,39,8.70
2007,09,23,04,40,8.70
2007,09,23,04,41,8.70
2007,09,23,04,42,8.70
2007,09,23,04,43,8.70
2007,09,23,04,44,8.70
2007,09,23,04,45,8.70
2007,09,23,04,46,8.70
2007,09,23,04,47,8.60
2007,09,23,04,48,8.60
2007,09,23,04,49,8.60
2007,09,23,04,50,8.50
2007,09,23,04,51,8.50
2007,09,23,04,52,8.40
2007,09,23,04,53,8.40
2007,09,23,04,54,8.40
2007,09,23,04,55,8.30
2007,09,23,04,56,8.20
2007,09,23,04,57,8.20
2007,09,23,04,58,8.10
2007,09,23,04,59,8.10
2007,09,23,05,00,8.10
2007,09,23,05,01,8.10
2007,09,23,05,02,8.00
2007,09,23,05,03,8.00
2007,09,23,05,04,8.10
2007,09,23,05,05,8.20
2007,09,23,05,06,8.20
2007,09,23,05,07,8.20
2007,09,23,05,08,8.20
2007,09,23,05,09,8.20
2007,09,23,05,10,8.20
2007,09,23,05,11,8.20
2007,09,23,05,12,8.20
2007,09,23,05,13,8.20
2007,09,23,05,14,8.20
2007,09,23,05,15,8.20
2007,09,23,05,16,8.10
2007,09,23,05,17,8.10
2007,09,23,05,18,8.10
2007,09,23,05,19,8.10
2007,09,23,05,20,8.10
2007,09,23,05,21,8.10
2007,09,23,05,22,8.10
2007,09,23,05,23,8.20
2007,09,23,05,24,8.20
2007,09,23,05,25,8.20
2007,09,23,05,26,8.20
2007,09,23,05,27,8.20
2007,09,23,05,28,8.30
2007,09,23,05,29,8.30
2007,09,23,05,30,8.30
2007,09,23,05,31,8.30
2007,09,23,05,32,8.30
2007,09,23,05,33,8.30
2007,09,23,05,34,8.30
2007,09,23,05,35,8.30
2007,09,23,05,36,8.30
2007,09,23,05,37,8.30
2007,09,23,05,38,8.30
2007,09,23,05,39,8.30
2007,09,23,05,40,8.30
2007,09,23,05,41,8.30
2007,09,23,05,42,8.30
2007,09,23,05,43,8.30
2007,09,23,05,44,8.30
2007,09,23,05,45,8.30
2007,09,23,05,46,8.30
2007,09,23,05,47,8.30
2007,09,23,05,48,8.30
2007,09,23,05,49,8.30
2007,09,23,05,50,8.30
2007,09,23,05,51,8.30
2007,09,23,05,52,8.30
2007,09,23,05,53,8.30
2007,09,23,05,54,8.30
2007,09,23,05,55,8.30
2007,09,23,05,56,8.30
2007,09,23,05,57,8.20
2007,09,23,05,58,8.20
2007,09,23,05,59,8.20
2007,09,23,06,00,8.10
2007,09,23,06,01,8.10
2007,09,23,06,02,8.10
2007,09,23,06,03,8.10
2007,09,23,06,04,8.10
2007,09,23,06,05,8.10
2007,09,23,06,06,8.10
2007,09,23,06,07,8.10
2007,09,23,06,08,8.10
2007,09,23,06,09,8.00
2007,09,23,06,10,8.00
2007,09,23,06,11,8.00
2007,09,23,06,12,8.00
2007,09,23,06,13,7.90
2007,09,23,06,14,7.90
2007,09,23,06,15,7.90
2007,09,23,06,16,7.90
2007,09,23,06,17,7.90
2007,09,23,06,18,7.80
2007,09,23,06,19,7.80
2007,09,23,06,20,7.80
2007,09,23,06,21,7.80
2007,09,23,06,22,7.80
2007,09,23,06,23,7.80
2007,09,23,06,24,7.80
2007,09,23,06,25,7.80
2007,09,23,06,26,7.70
2007,09,23,06,27,7.70
2007,09,23,06,28,7.70
2007,09,23,06,29,7.70
2007,09,23,06,30,7.70
2007,09,23,06,31,7.70
2007,09,23,06,32,7.70
2007,09,23,06,33,7.70
2007,09,23,06,34,7.70
2007,09,23,06,35,7.70
2007,09,23,06,36,7.70
2007,09,23,06,37,7.70
2007,09,23,06,38,7.70
2007,09,23,06,39,7.70
2007,09,23,06,40,7.70
2007,09,23,06,41,7.70
2007,09,23,06,42,7.70
2007,09,23,06,43,7.70
2007,09,23,06,44,7.60
2007,09,23,06,45,7.60
2007,09,23,06,46,7.60
2007,09,23,06,47,7.60
2007,09,23,06,48,7.60
2007,09,23,06,49,7.60
2007,09,23,06,50,7.60
2007,09,23,06,51,7.60
2007,09,23,06,52,7.60
2007,09,23,06,53,7.60
2007,09,23,06,54,7.60
2007,09,23,06,55,7.60
2007,09,23,06,56,7.60
2007,09,23,06,57,7.50
2007,09,23,06,58,7.50
2007,09,23,06,59,7.40
2007,09,23,07,00,7.40
2007,09,23,07,01,7.30
2007,09,23,07,02,7.30
2007,09,23,07,03,7.30
2007,09,23,07,04,7.30
2007,09,23,07,05,7.30
2007,09,23,07,06,7.40
2007,09,23,07,07,7.40
2007,09,23,07,08,7.40
2007,09,23,07,09,7.30
2007,09,23,07,10,7.30
2007,09,23,07,11,7.30
2007,09,23,07,12,7.20
2007,09,23,07,13,7.20
2007,09,23,07,14,7.20
2007,09,23,07,15,7.20
2007,09,23,07,16,7.20
2007,09,23,07,17,7.20
2007,09,23,07,18,7.20
2007,09,23,07,19,7.20
2007,09,23,07,20,7.10
2007,09,23,07,21,7.10
2007,09,23,07,22,7.10
2007,09,23,07,23,7.20
2007,09,23,07,24,7.20
2007,09,23,07,25,7.20
2007,09,23,07,26,7.20
2007,09,23,07,27,7.20
2007,09,23,07,28,7.20
2007,09,23,07,29,7.10
2007,09,23,07,30,7.10
2007,09,23,07,31,7.10
2007,09,23,07,32,7.10
2007,09,23,07,33,7.10
2007,09,23,07,34,7.10
2007,09,23,07,35,7.00
2007,09,23,07,36,7.00
2007,09,23,07,37,7.00
2007,09,23,07,38,7.00
2007,09,23,07,39,7.00
2007,09,23,07,40,7.00
2007,09,23,07,41,7.10
2007,09,23,07,42,7.10
2007,09,23,07,43,7.10
2007,09,23,07,44,7.10
2007,09,23,07,45,7.20
2007,09,23,07,46,7.20
2007,09,23,07,47,7.20
2007,09,23,07,48,7.20
2007,09,23,07,49,7.20
2007,09,23,07,50,7.20
2007,09,23,07,51,7.30
2007,09,23,07,52,7.30
2007,09,23,07,53,7.30
2007,09,23,07,54,7.40
2007,09,23,07,55,7.40
2007,09,23,07,56,7.40
2007,09,23,07,57,7.50
2007,09,23,07,58,7.50
2007,09,23,07,59,7.60
2007,09,23,08,00,7.60
2007,09,23,08,01,7.60
2007,09,23,08,02,7.70
2007,09,23,08,03,7.70
2007,09,23,08,04,7.80
2007,09,23,08,05,7.80
2007,09,23,08,06,7.90
2007,09,23,08,07,7.90
2007,09,23,08,08,8.00
2007,09,23,08,09,8.10
2007,09,23,08,10,8.20
2007,09,23,08,11,8.20
2007,09,23,08,12,8.30
2007,09,23,08,13,8.40
2007,09,23,08,14,8.40
2007,09,23,08,15,8.50
2007,09,23,08,16,8.50
2007,09,23,08,17,8.60
2007,09,23,08,18,8.60
2007,09,23,08,19,8.70
2007,09,23,08,20,8.70
2007,09,23,08,21,8.70
2007,09,23,08,22,8.80
2007,09,23,08,23,8.80
2007,09,23,08,24,8.80
2007,09,23,08,25,8.90
2007,09,23,08,26,8.90
2007,09,23,08,27,8.90
2007,09,23,08,28,9.00
2007,09,23,08,29,9.10
2007,09,23,08,30,9.10
2007,09,23,08,31,9.20
2007,09,23,08,32,9.30
2007,09,23,08,33,9.30
2007,09,23,08,34,9.40
2007,09,23,08,35,9.50
2007,09,23,08,36,9.60
2007,09,23,08,37,9.60
2007,09,23,08,38,9.70
2007,09,23,08,39,9.70
2007,09,23,08,40,9.80
2007,09,23,08,41,9.80
2007,09,23,08,42,9.90
2007,09,23,08,43,9.90
2007,09,23,08,44,9.90
2007,09,23,08,45,9.90
2007,09,23,08,46,9.90
2007,09,23,08,47,9.90
2007,09,23,08,48,9.90
2007,09,23,08,49,9.90
2007,09,23,08,50,9.90
2007,09,23,08,51,10.00
2007,09,23,08,52,10.10
2007,09,23,08,53,10.20
2007,09,23,08,54,10.20
2007,09,23,08,55,10.30
2007,09,23,08,56,10.30
2007,09,23,08,57,10.40
2007,09,23,08,58,10.50
2007,09,23,08,59,10.50
2007,09,23,09,00,10.60
2007,09,23,09,01,10.60
2007,09,23,09,02,10.60
2007,09,23,09,03,10.60
2007,09,23,09,04,10.60
2007,09,23,09,05,10.60
2007,09,23,09,06,10.70
2007,09,23,09,07,10.70
2007,09,23,09,08,10.80
2007,09,23,09,09,10.80
2007,09,23,09,10,10.90
2007,09,23,09,11,11.00
2007,09,23,09,12,11.10
2007,09,23,09,13,11.20
2007,09,23,09,14,11.20
2007,09,23,09,15,11.30
2007,09,23,09,16,11.30
2007,09,23,09,17,11.30
2007,09,23,09,18,11.40
2007,09,23,09,19,11.40
2007,09,23,09,20,11.40
2007,09,23,09,21,11.40
2007,09,23,09,22,11.40
2007,09,23,09,23,11.40
2007,09,23,09,24,11.50
2007,09,23,09,25,11.50
2007,09,23,09,26,11.50
2007,09,23,09,27,11.50
2007,09,23,09,28,11.50
2007,09,23,09,29,11.50
2007,09,23,09,30,11.50
2007,09,23,09,31,11.40
2007,09,23,09,32,11.40
2007,09,23,09,33,11.40
2007,09,23,09,34,11.50
2007,09,23,09,35,11.50
2007,09,23,09,36,11.60
2007,09,23,09,37,11.60
2007,09,23,09,38,11.70
2007,09,23,09,39,11.70
2007,09,23,09,40,11.80
2007,09,23,09,41,11.80
2007,09,23,09,42,11.90
2007,09,23,09,43,12.00
2007,09,23,09,44,12.10
2007,09,23,09,45,12.10
2007,09,23,09,46,12.20
2007,09,23,09,47,12.30
2007,09,23,09,48,12.40
2007,09,23,09,49,12.50
2007,09,23,09,50,12.60
2007,09,23,09,51,12.50
2007,09,23,09,52,12.50
2007,09,23,09,53,12.40
2007,09,23,09,54,12.40
2007,09,23,09,55,12.40
2007,09,23,09,56,12.30
2007,09,23,09,57,12.30
2007,09,23,09,58,12.40
2007,09,23,09,59,12.40
2007,09,23,10,00,12.40
2007,09,23,10,01,12.50
2007,09,23,10,02,12.50
2007,09,23,10,03,12.50
2007,09,23,10,04,12.40
2007,09,23,10,05,12.40
2007,09,23,10,06,12.40
2007,09,23,10,07,12.30
2007,09,23,10,08,12.30
2007,09,23,10,09,12.30
2007,09,23,10,10,12.30
2007,09,23,10,11,12.30
2007,09,23,10,12,12.40
2007,09,23,10,13,12.50
2007,09,23,10,14,12.60
2007,09,23,10,15,12.70
2007,09,23,10,16,12.80
2007,09,23,10,17,12.90
2007,09,23,10,18,12.80
2007,09,23,10,19,12.80
2007,09,23,10,20,12.80
2007,09,23,10,21,12.80
2007,09,23,10,22,12.90
2007,09,23,10,23,12.90
2007,09,23,10,24,12.90
2007,09,23,10,25,13.00
2007,09,23,10,26,13.10
2007,09,23,10,27,13.20
2007,09,23,10,28,13.20
2007,09,23,10,29,13.30
2007,09,23,10,30,13.30
2007,09,23,10,31,13.30
2007,09,23,10,32,13.30
2007,09,23,10,33,13.30
2007,09,23,10,34,13.30
2007,09,23,10,35,13.30
2007,09,23,10,36,13.30
2007,09,23,10,37,13.40
2007,09,23,10,38,13.50
2007,09,23,10,39,13.60
2007,09,23,10,40,13.70
2007,09,23,10,41,13.80
2007,09,23,10,42,13.80
2007,09,23,10,43,13.90
2007,09,23,10,44,13.90
2007,09,23,10,45,13.80
2007,09,23,10,46,13.80
2007,09,23,10,47,13.80
2007,09,23,10,48,13.80
2007,09,23,10,49,13.80
2007,09,23,10,50,13.90
2007,09,23,10,51,13.90
2007,09,23,10,52,14.00
2007,09,23,10,53,14.10
2007,09,23,10,54,14.10
2007,09,23,10,55,14.20
2007,09,23,10,56,14.20
2007,09,23,10,57,14.20
2007,09,23,10,58,14.20
2007,09,23,10,59,14.20
2007,09,23,11,00,14.30
2007,09,23,11,01,14.30
2007,09,23,11,02,14.30
2007,09,23,11,03,14.30
2007,09,23,11,04,14.30
2007,09,23,11,05,14.40
2007,09,23,11,06,14.40
2007,09,23,11,07,14.40
2007,09,23,11,08,14.50
2007,09,23,11,09,14.50
2007,09,23,11,10,14.50
2007,09,23,11,11,14.50
2007,09,23,11,12,14.40
2007,09,23,11,13,14.40
2007,09,23,11,14,14.30
2007,09,23,11,15,14.30
2007,09,23,11,16,14.20
2007,09,23,11,17,14.20
2007,09,23,11,18,14.20
2007,09,23,11,19,14.20
2007,09,23,11,20,14.20
2007,09,23,11,21,14.20
2007,09,23,11,22,14.30
2007,09,23,11,23,14.30
2007,09,23,11,24,14.30
2007,09,23,11,25,14.30
2007,09,23,11,26,14.30
2007,09,23,11,27,14.40
2007,09,23,11,28,14.40
2007,09,23,11,29,14.40
2007,09,23,11,30,14.40
2007,09,23,11,31,14.40
2007,09,23,11,32,14.40
2007,09,23,11,33,14.40
2007,09,23,11,34,14.40
2007,09,23,11,35,14.40
2007,09,23,11,36,14.40
2007,09,23,11,37,14.50
2007,09,23,11,38,14.50
2007,09,23,11,39,14.60
2007,09,23,11,40,14.60
2007,09,23,11,41,14.70
2007,09,23,11,42,14.90
2007,09,23,11,43,15.00
2007,09,23,11,44,15.00
2007,09,23,11,45,15.00
2007,09,23,11,46,15.00
2007,09,23,11,47,15.00
2007,09,23,11,48,15.00
2007,09,23,11,49,15.00
2007,09,23,11,50,15.10
2007,09,23,11,51,15.20
2007,09,23,11,52,15.20
2007,09,23,11,53,15.20
2007,09,23,11,54,15.30
2007,09,23,11,55,15.30
2007,09,23,11,56,15.30
2007,09,23,11,57,15.30
2007,09,23,11,58,15.30
2007,09,23,11,59,15.20
2007,09,23,12,00,15.20
2007,09,23,12,01,15.20
2007,09,23,12,02,15.20
2007,09,23,12,03,15.20
2007,09,23,12,04,15.20
2007,09,23,12,05,15.30
2007,09,23,12,06,15.40
2007,09,23,12,07,15.40
2007,09,23,12,08,15.40
2007,09,23,12,09,15.40
2007,09,23,12,10,15.40
2007,09,23,12,11,15.40
2007,09,23,12,12,15.60
2007,09,23,12,13,15.60
2007,09,23,12,14,15.70
2007,09,23,12,15,15.80
2007,09,23,12,16,15.90
2007,09,23,12,17,15.90
2007,09,23,12,18,16.00
2007,09,23,12,19,16.00
2007,09,23,12,20,16.00
2007,09,23,12,21,16.00
2007,09,23,12,22,16.10
2007,09,23,12,23,16.10
2007,09,23,12,24,16.20
2007,09,23,12,25,16.30
2007,09,23,12,26,16.30
2007,09,23,12,27,16.20
2007,09,23,12,28,16.10
2007,09,23,12,29,15.90
2007,09,23,12,30,15.80
2007,09,23,12,31,15.70
2007,09,23,12,32,15.70
2007,09,23,12,33,15.70
2007,09,23,12,34,15.60
2007,09,23,12,35,15.60
2007,09,23,12,36,15.70
2007,09,23,12,37,15.70
2007,09,23,12,38,15.70
2007,09,23,12,39,15.80
2007,09,23,12,40,15.80
2007,09,23,12,41,15.80
2007,09,23,12,42,15.80
2007,09,23,12,43,15.80
2007,09,23,12,44,15.70
2007,09,23,12,45,15.40
2007,09,23,12,46,15.20
2007,09,23,12,47,15.00
2007,09,23,12,48,15.00
2007,09,23,12,49,15.00
2007,09,23,12,50,15.00
2007,09,23,12,51,15.00
2007,09,23,12,52,15.00
2007,09,23,12,53,15.10
2007,09,23,12,54,15.00
2007,09,23,12,55,15.00
2007,09,23,12,56,15.00
2007,09,23,12,57,15.00
2007,09,23,12,58,15.00
2007,09,23,12,59,15.00
2007,09,23,13,00,15.00
2007,09,23,13,01,15.00
2007,09,23,13,02,15.00
2007,09,23,13,03,15.00
2007,09,23,13,04,15.00
2007,09,23,13,05,15.00
2007,09,23,13,06,15.00
2007,09,23,13,07,15.00
2007,09,23,13,08,15.00
2007,09,23,13,09,15.00
2007,09,23,13,10,15.00
2007,09,23,13,11,15.10
2007,09,23,13,12,15.10
2007,09,23,13,13,15.10
2007,09,23,13,14,15.10
2007,09,23,13,15,15.10
2007,09,23,13,16,15.20
2007,09,23,13,17,15.10
2007,09,23,13,18,15.10
2007,09,23,13,19,15.10
2007,09,23,13,20,15.10
2007,09,23,13,21,15.20
2007,09,23,13,22,15.30
2007,09,23,13,23,15.40
2007,09,23,13,24,15.40
2007,09,23,13,25,15.50
2007,09,23,13,26,15.60
2007,09,23,13,27,15.50
2007,09,23,13,28,15.40
2007,09,23,13,29,15.30
2007,09,23,13,30,15.20
2007,09,23,13,31,15.20
2007,09,23,13,32,15.20
2007,09,23,13,33,15.40
2007,09,23,13,34,15.40
2007,09,23,13,35,15.40
2007,09,23,13,36,15.40
2007,09,23,13,37,15.40
2007,09,23,13,38,15.50
2007,09,23,13,39,15.60
2007,09,23,13,40,15.70
2007,09,23,13,41,15.70
2007,09,23,13,42,15.60
2007,09,23,13,43,15.60
2007,09,23,13,44,15.50
2007,09,23,13,45,15.40
2007,09,23,13,46,15.40
2007,09,23,13,47,15.40
2007,09,23,13,48,15.40
2007,09,23,13,49,15.40
2007,09,23,13,50,15.40
2007,09,23,13,51,15.50
2007,09,23,13,52,15.50
2007,09,23,13,53,15.60
2007,09,23,13,54,15.70
2007,09,23,13,55,15.80
2007,09,23,13,56,15.80
2007,09,23,13,57,15.80
2007,09,23,13,58,15.80
2007,09,23,13,59,15.80
2007,09,23,14,00,15.80
2007,09,23,14,01,15.80
2007,09,23,14,02,15.80
2007,09,23,14,03,15.80
2007,09,23,14,04,15.80
2007,09,23,14,05,15.90
2007,09,23,14,06,15.80
2007,09,23,14,07,15.70
2007,09,23,14,08,15.60
2007,09,23,14,09,15.60
2007,09,23,14,10,15.40
2007,09,23,14,11,15.30
2007,09,23,14,12,15.30
2007,09,23,14,13,15.20
2007,09,23,14,14,15.10
2007,09,23,14,15,15.10
2007,09,23,14,16,15.20
2007,09,23,14,17,15.40
2007,09,23,14,18,15.60
2007,09,23,14,19,15.60
2007,09,23,14,20,15.70
2007,09,23,14,21,15.70
2007,09,23,14,22,15.70
2007,09,23,14,23,15.70
2007,09,23,14,24,15.70
2007,09,23,14,25,15.80
2007,09,23,14,26,15.70
2007,09,23,14,27,15.60
2007,09,23,14,28,15.60
2007,09,23,14,29,15.60
2007,09,23,14,30,15.70
2007,09,23,14,31,15.80
2007,09,23,14,32,15.90
2007,09,23,14,33,16.00
2007,09,23,14,34,16.10
2007,09,23,14,35,16.20
2007,09,23,14,36,16.20
2007,09,23,14,37,16.20
2007,09,23,14,38,16.10
2007,09,23,14,39,16.10
2007,09,23,14,40,16.00
2007,09,23,14,41,15.90
2007,09,23,14,42,15.80
2007,09,23,14,43,15.90
2007,09,23,14,44,15.90
2007,09,23,14,45,15.90
2007,09,23,14,46,15.90
2007,09,23,14,47,15.90
2007,09,23,14,48,16.00
2007,09,23,14,49,16.10
2007,09,23,14,50,16.10
2007,09,23,14,51,16.20
2007,09,23,14,52,16.10
2007,09,23,14,53,16.10
2007,09,23,14,54,16.00
2007,09,23,14,55,16.00
2007,09,23,14,56,16.00
2007,09,23,14,57,15.90
2007,09,23,14,58,15.80
2007,09,23,14,59,15.70
2007,09,23,15,00,15.70
2007,09,23,15,01,15.70
2007,09,23,15,02,15.70
2007,09,23,15,03,15.70
2007,09,23,15,04,15.70
2007,09,23,15,05,15.70
2007,09,23,15,06,15.80
2007,09,23,15,07,15.90
2007,09,23,15,08,15.90
2007,09,23,15,09,15.90
2007,09,23,15,10,15.80
2007,09,23,15,11,15.80
2007,09,23,15,12,15.80
2007,09,23,15,13,15.90
2007,09,23,15,14,15.90
2007,09,23,15,15,16.00
2007,09,23,15,16,16.10
2007,09,23,15,17,16.20
2007,09,23,15,18,16.20
2007,09,23,15,19,16.10
2007,09,23,15,20,16.10
2007,09,23,15,21,16.10
2007,09,23,15,22,16.10
2007,09,23,15,23,16.10
2007,09,23,15,24,16.10
2007,09,23,15,25,16.00
2007,09,23,15,26,16.00
2007,09,23,15,27,15.90
2007,09,23,15,28,15.80
2007,09,23,15,29,15.60
2007,09,23,15,30,15.60
2007,09,23,15,31,15.60
2007,09,23,15,32,15.60
2007,09,23,15,33,15.60
2007,09,23,15,34,15.50
2007,09,23,15,35,15.40
2007,09,23,15,36,15.40
2007,09,23,15,37,15.40
2007,09,23,15,38,15.40
2007,09,23,15,39,15.40
2007,09,23,15,40,15.50
2007,09,23,15,41,15.60
2007,09,23,15,42,15.60
2007,09,23,15,43,15.60
2007,09,23,15,44,15.60
2007,09,23,15,45,15.70
2007,09,23,15,46,15.60
2007,09,23,15,47,15.60
2007,09,23,15,48,15.60
2007,09,23,15,49,15.50
2007,09,23,15,50,15.50
2007,09,23,15,51,15.60
2007,09,23,15,52,15.60
2007,09,23,15,53,15.60
2007,09,23,15,54,15.60
2007,09,23,15,55,15.60
2007,09,23,15,56,15.60
2007,09,23,15,57,15.60
2007,09,23,15,58,15.60
2007,09,23,15,59,15.60
2007,09,23,16,00,15.70
2007,09,23,16,01,15.70
2007,09,23,16,02,15.60
2007,09,23,16,03,15.60
2007,09,23,16,04,15.60
2007,09,23,16,05,15.60
2007,09,23,16,06,15.60
2007,09,23,16,07,15.60
2007,09,23,16,08,15.60
2007,09,23,16,09,15.60
2007,09,23,16,10,15.60
2007,09,23,16,11,15.60
2007,09,23,16,12,15.60
2007,09,23,16,13,15.60
2007,09,23,16,14,15.60
2007,09,23,16,15,15.60
2007,09,23,16,16,15.60
2007,09,23,16,17,15.60
2007,09,23,16,18,15.60
2007,09,23,16,19,15.60
2007,09,23,16,20,15.60
2007,09,23,16,21,15.60
2007,09,23,16,22,15.70
2007,09,23,16,23,15.70
2007,09,23,16,24,15.80
2007,09,23,16,25,15.80
2007,09,23,16,26,15.80
2007,09,23,16,27,15.70
2007,09,23,16,28,15.70
2007,09,23,16,29,15.60
2007,09,23,16,30,15.70
2007,09,23,16,31,15.60
2007,09,23,16,32,15.60
2007,09,23,16,33,15.50
2007,09,23,16,34,15.50
2007,09,23,16,35,15.50
2007,09,23,16,36,15.50
2007,09,23,16,37,15.60
2007,09,23,16,38,15.60
2007,09,23,16,39,15.60
2007,09,23,16,40,15.70
2007,09,23,16,41,15.70
2007,09,23,16,42,15.70
2007,09,23,16,43,15.70
2007,09,23,16,44,15.70
2007,09,23,16,45,15.70
2007,09,23,16,46,15.80
2007,09,23,16,47,15.80
2007,09,23,16,48,15.90
2007,09,23,16,49,15.80
2007,09,23,16,50,15.70
2007,09,23,16,51,15.70
2007,09,23,16,52,15.60
2007,09,23,16,53,15.60
2007,09,23,16,54,15.60
2007,09,23,16,55,15.60
2007,09,23,16,56,15.60
2007,09,23,16,57,15.70
2007,09,23,16,58,15.70
2007,09,23,16,59,15.70
2007,09,23,17,00,15.70
2007,09,23,17,01,15.70
2007,09,23,17,02,15.80
2007,09,23,17,03,15.80
2007,09,23,17,04,15.80
2007,09,23,17,05,15.90
2007,09,23,17,06,15.80
2007,09,23,17,07,15.80
2007,09,23,17,08,15.80
2007,09,23,17,09,15.80
2007,09,23,17,10,15.80
2007,09,23,17,11,15.70
2007,09,23,17,12,15.60
2007,09,23,17,13,15.60
2007,09,23,17,14,15.60
2007,09,23,17,15,15.50
2007,09,23,17,16,15.50
2007,09,23,17,17,15.50
2007,09,23,17,18,15.50
2007,09,23,17,19,15.40
2007,09,23,17,20,15.40
2007,09,23,17,21,15.30
2007,09,23,17,22,15.30
2007,09,23,17,23,15.30
2007,09,23,17,24,15.40
2007,09,23,17,25,15.30
2007,09,23,17,26,15.30
2007,09,23,17,27,15.30
2007,09,23,17,28,15.30
2007,09,23,17,29,15.20
2007,09,23,17,30,15.20
2007,09,23,17,31,15.10
2007,09,23,17,32,15.00
2007,09,23,17,33,15.00
2007,09,23,17,34,15.00
2007,09,23,17,35,15.00
2007,09,23,17,36,15.00